Regional Weather Roundup
Issued by NWS

Home | Current Version | Previous Version | Graphics & Text | Print | Product List | Glossary On
Versions: 1 2 3 4 5 6 7 8 9 10 11 12 13 14 15 16 17 18 19 20 21 22 23 24 25 26 27 28 29 30 31 32 33 34 35 36 37 38 39 40 41 42 43 44 45 46 47 48 49 50
906
ASUS43 KMKX 230420
RWRWI

WISCONSIN REGIONAL WEATHER ROUNDUP
NATIONAL WEATHER SERVICE MILWAUKEE/SULLIVAN WI
1000 PM CST SUN JAN 22 2017

NOTE: "FAIR" INDICATES FEW OR NO CLOUDS BELOW 12,000 FEET WITH NO
SIGNIFICANT WEATHER AND/OR OBSTRUCTIONS TO VISIBILITY.

WIZ001-002-006>008-014>016-023>028-230500-
NORTHWEST WISCONSIN

CITY           SKY/WX    TMP DP  RH WIND       PRES   REMARKS
SUPERIOR ARPT  CLOUDY    35  35 100 SW5       29.74S WCI  31
ASHLAND        CLOUDY    34  33  96 SW3       29.74R FOG
HAYWARD        FOG       34  33  96 CALM      29.72S VSB 1/4
SIREN          FOG       35  35  99 W3        29.75S VSB 3/4
CUMBERLAND     CLOUDY    34  32  93 W5        29.74R FOG     WCI  30
RICE LAKE      FOG       35  35 100 W3        29.76R VSB 3/4
CHETEK         CLOUDY    35  35 100 CALM      29.75R FOG
LADYSMITH      FOG       35  34  99 W3        29.74S VSB 1/2
EAU CLAIRE     FOG       34  34 100 W3        29.75R VSB 1
MENOMONIE        N/A    N/A N/A N/A MISG        N/A
NEW RICHMOND   CLOUDY    35  35 100 W3        29.77R FOG
OSCEOLA        CLOUDY    36  36 100 W5        29.79S FOG     WCI  32
$$

WIZ003>005-009-010-017-018-230500-
NORTH CENTRAL WISCONSIN

CITY           SKY/WX    TMP DP  RH WIND       PRES   REMARKS
MANITOWISH WTR CLOUDY    32  32 100 CALM      29.70R
ARBOR VITAE    CLOUDY    34  33  96 CALM      29.69S
WOODRUFF       CLOUDY    34  33  96 CALM      29.69S
RHINELANDER    CLOUDY    35  35 100 CALM      29.69R
EAGLE RIVER    CLOUDY    33  33 100 NW3       29.68R
LAND O LAKES   CLOUDY    34  34 100 NW3       29.70R
PHILLIPS       CLOUDY    33  33 100 CALM      29.70S
TOMAHAWK       CLOUDY    33  32  96 CALM      29.70S
MEDFORD        CLOUDY    33  33  99 NW7       29.70R WCI  27
MERRILL        CLOUDY    35  35 100 CALM        N/A
$$

WIZ029-030-035-036-043>047-230500-
CENTRAL WISCONSIN

CITY           SKY/WX    TMP DP  RH WIND       PRES   REMARKS
WAUSAU         CLOUDY    35  35 100 NW3       29.69S FOG
MOSINEE        CLOUDY    34  34 100 NW5       29.71R FOG     WCI  30
MARSHFIELD     FOG       34  33  96 NW6       29.70R VSB 1/4 WCI  29
STEVENS POINT  CLOUDY    34  34 100 NW5       29.70S FOG     WCI  30
WAUPACA        CLOUDY    38  37  97 CALM      29.69S
WAUTOMA        CLOUDY    36  36 100 NW7       29.71S FOG     WCI  30
WISC RAPIDS    CLOUDY    35  35 100 NW8       29.72S FOG     WCI  29
CAMP DOUGLAS   CLOUDY    36  34  93 W7        29.71F FOG     WCI  30
$$

WIZ011>013-019>022-031-037>040-048>050-230500-
NORTHEAST WISCONSIN

CITY           SKY/WX    TMP DP  RH WIND       PRES   REMARKS
ANTIGO         CLOUDY    34  34 100 N6        29.69S WCI  29
SHAWANO        CLOUDY    39  38  95 NW3       29.69R
OCONTO         CLOUDY    33  33  99 CALM      29.68S VSB 1/2
STURGEON BAY   FOG       35  35 100 CALM      29.69R VSB 1/4
GREEN BAY      FOG       37  37 100 CALM      29.69R VSB 3/4
MANITOWOC      CLOUDY    37  36  96 MISG      29.70R
APPLETON       CLOUDY    36  36 100 NW6       29.67S FOG     WCI  31
CLINTONVILLE   CLOUDY    36  36 100 NW5       29.69R WCI  32
OSHKOSH        CLOUDY    36  35  96 W3        29.69R
$$

WIZ032>034-041-042-053>061-230500-
SOUTHWEST WISCONSIN

CITY           SKY/WX    TMP DP  RH WIND       PRES   REMARKS
LA CROSSE      CLOUDY    38  34  85 NW5       29.76R FOG     WCI  34
SPARTA         CLOUDY    34  34 100 CALM      29.75S
VIROQUA        CLOUDY    34  34 100 NW13      29.71F WCI  25
BOSCOBEL       CLOUDY    39  35  86 VRB3      29.74S
PRAIRIE DU CHI CLOUDY    37  34  90 NW5       29.75R WCI  33
PLATTEVILLE    CLOUDY    36  36 100 N8        29.73R WCI  30
$$

WIZ056-057-062-063-064-067-068-230500-
SOUTH CENTRAL WISCONSIN

CITY           SKY/WX    TMP DP  RH WIND       PRES   REMARKS
REEDSBURG      CLOUDY    35  35 100 NW7       29.72R WCI  29
BARABOO/DELLS  CLOUDY    35  35  99 NW6       29.72R FOG     WCI  30
LONE ROCK      CLOUDY    37  35  92 NW9       29.74R WCI  30
MINERAL POINT  CLOUDY    37  37 100 N3        29.73R FOG
MADISON        CLOUDY    37  36  96 NW7       29.72R FOG     WCI  32
MIDDLETON      CLOUDY    38  38 100 NW6       29.72R WCI  33
WATERTOWN      CLOUDY    37  37 100 CALM      29.70R
MONROE         CLOUDY    36  36 100 N5        29.72R WCI  32
JANESVILLE     CLOUDY    37  37 100 N7        29.72R WCI  32
$$

WIZ051-052-058>065-066-070>072-230500-
SOUTHEAST WISCONSIN

CITY           SKY/WX    TMP DP  RH WIND       PRES   REMARKS
MILWAUKEE      CLOUDY    38  36  92 NW5       29.70R WCI  34
WAUKESHA       CLOUDY    34  34 100 NW5       29.71R FOG     WCI  30
MILWAUKEE/TIMM CLOUDY    36  32  87 CALM      29.71R FOG
RACINE         FOG       37  35  92 N7        29.72R VSB 1/2 WCI  32
KENOSHA        FOG       38  36  92 NE7       29.71R VSB 1/4 WCI  33
FOND DU LAC    CLOUDY    37  34  89 NW5       29.70R WCI  33
SHEBOYGAN      CLOUDY    37  36  96 CALM      29.70R FOG
WEST BEND      CLOUDY    36  36 100 NW3       29.70R FOG
JUNEAU         CLOUDY    36  35  96 NW3       29.72R FOG
$$

LSZ147-162-230500-
LAKE SUPERIOR

STATION/POSITION TIME  TEMP    WIND        PRES    WAVE
                       AIR SEA DIR/SP/G            HT/PER
                 (UTC) (F)     (DEG/KT/KT) (MB)    (FT/S)
DEVILS ISLAND    0400   35     210/  5/  6 1007.2S
PORT WING        0330   35     200/  3/  3 1007.1R
SAXON HARBOR     0340   33     190/  2/  3 1006.8S
$$

LMZ867-665-643>646-230500-
LAKE MICHIGAN

STATION/POSITION TIME  TEMP    WIND        PRES    WAVE
                       AIR SEA DIR/SP/G            HT/PER
                 (UTC) (F)     (DEG/KT/KT) (MB)    (FT/S)
NORTHPORT PIER   0340   33      CALM  /  3 1005.1S
SISTER BAY       0320   33        CALM       N/A
KEWAUNEE LAKESHO 0354   36      CALM  /  1 1005.1R
SHEBOYGAN LAKESH 0400   38     290/  5/  6 1005.9R
PORT WASHINGTON  0340   38      CALM  /  2 1006.8R
KENOSHA   LAKESH 0400   36      30/ 10/ 12 1006.4
$$

TC  - TEMPERATURE IN CELSIUS
VSB - VISIBILITY IN STATUTE MILES
WCI - WIND CHILL INDEX
HX  - HEAT INDEX





USA.gov is the U.S. government's official web portal to all federal, state and local government web resources and services.